EW6160 Weather Reports


time (UTC)temp
F
wind
direction
speed
knots
gust
knots
rain 1hr
in
rain 24hr
in
rain mn
in
humidity
%
barometer
mb
20260504090123 47 68 0.0 0.0 0.00 0.00 0.00 99 1006.7
20260504081122 48 121 0.0 2.6 0.00 0.00 0.00 99 1006.9
20260504080122 48 113 0.0 0.0 0.00 0.00 0.00 99 1006.9
20260504070123 50 90 0.0 0.0 0.00 0.00 0.00 96 1007.3
20260504060122 53 113 0.0 0.0 0.00 0.00 0.00 89 1007.7
20260504050123 57 158 0.0 0.0 0.00 0.00 0.00 79 1008.3
20260504045144 57 270 0.0 0.0 0.00 0.00 0.00 77 1008.4
20260504044123 58 202 0.0 2.6 0.00 0.00 0.00 76 1008.4
20260504043122 58 219 0.9 2.6 0.00 0.00 0.00 75 1008.5
20260504042122 59 225 0.0 0.0 0.00 0.00 0.00 76 1008.5
20260504041121 59 213 0.9 1.7 0.00 0.00 0.00 73 1008.7
20260504040122 59 211 0.9 2.6 0.00 0.00 0.00 72 1008.7
20260504035122 60 180 0.0 0.0 0.00 0.00 0.00 72 1008.7
20260504034121 60 205 0.9 2.6 0.00 0.00 0.00 70 1008.7
20260504033122 61 206 1.7 3.5 0.00 0.00 0.00 70 1008.8
20260504032123 61 208 2.6 2.6 0.00 0.00 0.00 69 1008.7
20260504031122 61 207 1.7 2.6 0.00 0.00 0.00 70 1008.8
20260504030143 61 206 1.7 3.5 0.00 0.00 0.00 70 1008.8
20260504025122 61 211 2.6 3.5 0.00 0.00 0.00 70 1008.8
20260504024123 61 204 1.7 2.6 0.00 0.00 0.00 71 1008.8
20260504023142 61 207 1.7 2.6 0.00 0.00 0.00 71 1008.7
20260504022143 60 212 0.9 2.6 0.00 0.00 0.00 72 1008.7
20260504021144 60 203 0.0 0.0 0.00 0.00 0.00 71 1008.7
20260504020122 59 203 0.0 0.0 0.00 0.00 0.00 73 1008.7
20260504015143 59 153 0.0 1.7 0.00 0.00 0.00 75 1008.7
20260504014122 59 180 0.0 0.0 0.00 0.00 0.00 72 1008.7
20260504013122 60 135 0.0 0.0 0.00 0.00 0.00 71 1008.5
20260504012122 61 113 0.0 0.0 0.00 0.00 0.00 70 1008.3
20260504011122 62 199 0.9 2.6 0.00 0.00 0.00 68 1008.4
20260504010122 63 213 0.0 1.7 0.00 0.00 0.00 68 1008.4
20260504005122 64 205 0.9 2.6 0.00 0.00 0.00 64 1008.3
20260504004122 66 207 1.7 2.6 0.00 0.00 0.00 60 1008.3
20260504003122 66 211 2.6 3.5 0.00 0.00 0.00 59 1008.3
20260504002123 67 214 0.9 2.6 0.00 0.00 0.00 59 1008.4
20260504001122 68 207 0.9 2.6 0.00 0.00 0.00 58 1008.3
20260504000123 68 212 1.7 3.5 0.00 0.00 0.00 58 1008.3
20260503235122 68 213 2.6 3.5 0.00 0.00 0.00 58 1008.4
20260503234123 68 215 2.6 4.3 0.00 0.00 0.00 57 1008.4
20260503233123 67 208 2.6 3.5 0.00 0.00 0.00 59 1008.4
20260503232123 67 204 1.7 3.5 0.00 0.00 0.00 58 1008.5
20260503231143 68 214 2.6 4.3 0.00 0.00 0.00 56 1008.5
20260503230122 68 211 3.5 4.3 0.00 0.00 0.00 54 1008.5
20260503225122 69 210 2.6 4.3 0.00 0.00 0.00 53 1008.7
20260503224121 68 211 3.5 4.3 0.00 0.00 0.00 53 1008.7
20260503223143 67 212 3.5 4.3 0.00 0.00 0.00 54 1008.8
20260503222143 68 208 2.6 4.3 0.00 0.00 0.00 56 1008.9
20260503221122 68 216 4.3 6.1 0.00 0.00 0.00 53 1009.2
20260503220122 68 218 3.5 6.1 0.00 0.00 0.00 54 1009.2
20260503215143 67 226 4.3 5.2 0.00 0.00 0.00 53 1009.2
20260503214122 68 213 4.3 7.0 0.00 0.00 0.00 52 1009.2
20260503213122 68 220 4.3 6.1 0.00 0.00 0.00 53 1009.2
20260503212122 68 225 4.3 7.8 0.00 0.00 0.00 51 1009.2
20260503211122 68 212 5.2 7.8 0.00 0.00 0.00 51 1009.2
20260503210122 67 218 4.3 7.0 0.00 0.00 0.00 52 1009.2
20260503205122 67 200 6.1 8.7 0.00 0.00 0.00 50 1009.3
20260503204122 68 209 6.1 8.7 0.00 0.00 0.00 48 1009.4
20260503203122 67 207 6.1 8.7 0.00 0.00 0.00 49 1009.3
20260503202143 66 212 5.2 7.8 0.00 0.00 0.00 50 1009.9
20260503201122 66 217 5.2 7.8 0.00 0.00 0.00 50 1009.7
20260503200122 66 205 6.1 9.6 0.00 0.00 0.00 49 1009.7
20260503195122 67 199 7.0 8.7 0.00 0.00 0.00 48 1009.8
20260503194122 68 210 6.1 8.7 0.00 0.00 0.00 48 1010.2
20260503193122 68 217 6.1 9.6 0.00 0.00 0.00 46 1010.2
20260503192122 68 213 6.1 7.8 0.00 0.00 0.00 46 1010.4
20260503191122 67 203 7.0 9.6 0.00 0.00 0.00 47 1010.2
20260503190122 67 209 6.1 10.4 0.00 0.00 0.00 46 1010.2
20260503185122 66 207 7.0 10.4 0.00 0.00 0.00 47 1010.4
20260503184122 66 205 7.0 10.4 0.00 0.00 0.00 46 1010.7
20260503183122 65 199 7.0 9.6 0.00 0.00 0.00 46 1010.7
20260503182122 64 210 6.1 8.7 0.00 0.00 0.00 49 1011.0
20260503181143 64 198 6.1 8.7 0.00 0.00 0.00 50 1011.2
20260503180122 65 199 4.3 9.6 0.00 0.00 0.00 50 1011.2
20260503175122 64 207 7.0 9.6 0.00 0.00 0.00 51 1011.5
20260503174122 64 201 6.1 10.4 0.00 0.00 0.00 52 1011.9
20260503173143 62 199 6.1 9.6 0.00 0.00 0.00 54 1012.4
20260503172143 61 208 5.2 8.7 0.00 0.00 0.00 54 1012.7
20260503171122 61 195 4.3 6.1 0.00 0.00 0.00 55 1013.2
20260503170122 61 197 4.3 7.8 0.00 0.00 0.00 54 1013.2
20260503160122 58 204 2.6 5.2 0.00 0.00 0.00 61 1014.0
20260503150143 59 206 3.5 6.1 0.00 0.00 0.00 59 1015.3
20260503140122 52 187 0.9 2.6 0.00 0.00 0.00 72 1016.0
20260503131122 50 205 2.6 3.5 0.00 0.00 0.00 74 1016.7
20260503130143 49 194 1.7 2.6 0.00 0.00 0.00 74 1016.7
20260503120122 47 198 2.6 3.5 0.00 0.00 0.00 78 1016.8
20260503110142 44 188 0.9 2.6 0.00 0.00 0.00 83 1016.7
20260503100142 45 193 0.9 2.6 0.00 0.00 0.00 78 1016.7